Regional Weather Roundup
Issued by NWS

Home | Current Version | Previous Version | Text Only | Print | Product List | Glossary On
Versions: 1 2 3 4 5 6 7 8 9 10 11 12 13 14 15 16 17 18 19 20 21 22 23 24 25 26 27 28 29 30 31 32 33 34 35 36 37 38 39 40 41 42 43 44 45 46 47 48 49 50
000
ASUS45 KPSR 301410
RWRAZ

ARIZONA HOURLY REGIONAL WEATHER ROUNDUP
NATIONAL WEATHER SERVICE PHOENIX AZ
700 AM MST SUN AUG 30 2015

NOTE: FAIR INDICATES FEW OR NO CLOUDS BELOW 12,000 FEET WITH NO
SIGNIFICANT WEATHER AND/OR OBSTRUCTIONS TO VISIBILITY.

AZZ001>003-036-301500-
NORTHWEST ARIZONA

CITY           SKY/WX    TMP DP  RH WIND       PRES   REMARKS
BULLHEAD CITY  CLEAR     88  45  22 CALM      29.81R
KINGMAN        CLEAR     77  57  50 SE10      30.02R
$$

AZZ004>008-015-016-018-301500-
NORTH CENTRAL ARIZONA

CITY           SKY/WX    TMP DP  RH WIND       PRES   REMARKS
GRAND CANYON   SUNNY     52  45  77 CALM      30.29R
WILLIAMS       SUNNY     59  50  72 SE8       30.35R
PRESCOTT       MOSUNNY   69  56  62 S6        30.18R
FLAGSTAFF      MOSUNNY   56  52  86 CALM      30.33R
PAYSON         MOSUNNY   68  54  60 CALM      30.22S
PAGE           SUNNY     78  50  37 S5        30.08R
$$

AZZ009>014-017-301500-
NORTHEAST ARIZONA

CITY           SKY/WX    TMP DP  RH WIND       PRES   REMARKS
WINSLOW        MOSUNNY   68  53  58 E8        30.19R
SAINT JOHNS    SUNNY     63  54  72 CALM      30.24R
WINDOW ROCK    SUNNY     56  47  71 CALM      30.33R
SHOW LOW       SUNNY     63  46  55 S10       30.30R
$$

AZZ023-301500-
GREATER PHOENIX AREA

CITY           SKY/WX    TMP DP  RH WIND       PRES   REMARKS
PHOENIX        PTSUNNY   84  67  56 E7        29.87R
BUCKEYE        MOSUNNY   88  61  40 E6        29.87R
GLENDALE       MOSUNNY   88  63  42 CALM        N/A
LUKE AFB       MOSUNNY   86  67  53 CALM      29.87R
DEER VALLEY    MOSUNNY   87  59  38 CALM      29.90R
SCOTTSDALE     MOSUNNY   85  64  49 CALM      29.92R
MESA-FALCON    MOSUNNY   88  59  37 N6        29.89R
MESA-GATEWAY   MOSUNNY   79  66  65 E6        29.92
CHANDLER       MOSUNNY   82  66  57 NE10      29.89R
$$

AZZ027-028-301500-
SOUTHWEST MARICOPA COUNTY AND PINAL COUNTY

CITY           SKY/WX    TMP DP  RH WIND       PRES   REMARKS
CASA GRANDE    SUNNY    N/A N/A N/A CALM      29.90R
GILA BEND      FAIR      87  55  33 NE6       29.84R
$$

AZZ503-504-507>509-301500-
SOUTHEAST ARIZONA

CITY           SKY/WX    TMP DP  RH WIND       PRES   REMARKS
TUCSON         MOSUNNY   81  58  45 SE13      30.02R
DAVIS-MONTHAN  MOSUNNY   78  59  52 SE9       30.01R
RYAN FIELD     SUNNY     79  64  61 E7        30.00R
NOGALES        MOSUNNY   67  59  75 E7        30.10R
SIERRA VISTA   MOSUNNY   71  55  56 SW2       30.17S
DOUGLAS        SUNNY     67  60  78 N3        30.13R
SAFFORD        SUNNY     75  55  49 E8        30.06R
$$

AZZ020-021-025-026-031-301500-
SOUTHWEST ARIZONA

CITY           SKY/WX    TMP DP  RH WIND       PRES   REMARKS
YUMA           CLEAR     90  62  39 S7        29.78R
$$

CAZ031-033-041-043-047-048-061-301500-
SOUTHERN CALIFORNIA

CITY           SKY/WX    TMP DP  RH WIND       PRES   REMARKS
DOWNTOWN L.A.  CLEAR     74  65  73 CALM      29.88R
L.A. AIRPORT   PTCLDY    72  67  84 NE5       29.89R
SAN DIEGO      PTCLDY    74  68  81 CALM      29.91R
BURBANK        CLEAR     73  60  63 CALM      29.90R
ONTARIO        PTCLDY    70  60  70 CALM      29.91R
RIVERSIDE      CLEAR     72  60  66 CALM      29.91R
PALM SPRINGS   CLEAR     86  56  35 NW5       29.81R
EL CENTRO NAS  CLEAR     88  50  27 W9        29.79R
IMPERIAL       CLEAR     86  52  30 CALM      29.76R
BLYTHE         CLEAR     88  55  32 CALM      29.79R
NEEDLES        CLEAR     91  42  18 S3        29.82R
$$

NVZ020-UTZ003-301500-
SOUTHERN NEVADA-UTAH

CITY           SKY/WX    TMP DP  RH WIND       PRES   REMARKS
LAS VEGAS      MOCLDY    86  44  23 S7        29.85R
SALT LAKE CITY PTSUNNY   75  50  41 NW9       29.97R
$$

NMZ009-TXZ055-301500-
NEW MEXICO-WEST TEXAS

CITY           SKY/WX    TMP DP  RH WIND       PRES   REMARKS
ALBUQUERQUE    MOSUNNY   67  51  56 N7        30.25R
EL PASO        MOSUNNY   73  55  53 CALM      30.15R
$$


........................KEY........................
SKY/WX - SKY CONDITION/WEATHER
TMP    - TEMPERATURE IN FAHRENHEIT
DP     - DEW POINT IN FAHRENHEIT
RH     - RELATIVE HUMIDITY IN PERCENT
WIND   - DIRECTION AND SPEED IN MILES PER HOUR (MPH)
VRB    - VARIABLE WIND DIRECTION
PRES   - MEAN SEA LEVEL PRESSURE IN INCHES OF MERCURY
         F - FALLING PRESSURE   R - RISING PRESSURE
         S - STEADY PRESSURE
VSB    - VISIBILITY IN MILES
HX     - HEAT INDEX IN FAHRENHEIT
WCI    - WIND CHILL INDEX IN FAHRENHEIT
TC     - TEMPERATURE IN CELSIUS WHICH IS ALSO KNOWN AS
         TEMPERATURE IN CENTIGRADE
AFB    - AIR FORCE BASE
         LUKE AFB IS LUKE AIR FORCE BASE
         DAVIS-MONTHAN IS DAVIS-MONTHAN AIR FORCE BASE
NAS    - NAVAL AIR STATION
         EL CENTRO NAS IS EL CENTRO NAVAL AIR STATION
N/A    - NOT AVAILABLE




USA.gov is the U.S. government's official web portal to all federal, state and local government web resources and services.